Location: ?
(35.2180°N, 139.6392°E)
Time: 18:53:03
(UTC+00:00)

Cosmos 1447 Rocket - Pass Details

Date: 05 August 2024
Orbit: 953 x 996 km, 82.9° (Epoch: 18 September)

Event Time Altitude Azimuth Distance (km) Brightness Sun altitude
Rises 12:25:16 0° 355° (N) 3,647 8.3 -28.1°
Reaches altitude 10° 12:27:47 10° 357° (N) 2,693 7.5 -28.4°
Enters shadow 12:33:41 74° 60° (ENE) 993 4.4 -29.1°
